User: anonymous   Login
Location: Azul
(36.7830°S, 59.8500°W)
Time: 01:20:35
(UTC-03:00)
Language:

UNISAT 6 - Orbit

View from above orbital plane
View from above orbital plane
View from above satellite
View from above satellite

Ground track
Ground track

The orbit data is extracted from the following two-line orbital elements,

1 40012U 14033C   21295.54835816  .00000383  00000-0  63552-4 0  9996
2 40012  97.6672 131.2501 0057253 208.0288 151.7836 14.74406755394920
Epoch (UTC): 22 October 2021 13:09:38
Eccentricity: 0.0057253
inclination: 97.6672°
perigee height: 607 km
apogee height: 687 km
right ascension of ascending node: 131.2501°
argument of perigee: 208.0288°
revolutions per day: 14.74406755
mean anomaly at epoch: 151.7836°
orbit number at epoch: 39492

The dashed part of the orbit path shows where the satellite is in the earth's shadow,  

DLR